Regional Weather Roundup
Issued by NWS Grand Forks, ND

Home | Current Version | Previous Version | Graphics & Text | Print | Product List | Glossary On
Versions: 1 2 3 4 5 6 7 8 9 10 11 12 13 14 15 16 17 18 19 20 21 22 23 24 25 26 27 28 29 30 31 32 33 34 35 36 37 38 39 40 41 42 43 44 45 46 47 48 49 50
000
ASUS43 KFGF 010731
RWRFGF
PRAIRIE TO PINES  WEATHER ROUNDUP
NATIONAL WEATHER SERVICE EASTERN NORTH DAKOTA/GRAND FORKS ND
200 AM CDT MON SEP 01 2014

 **SATELLITE DATA USED TO AUGMENT SKY COVER AT AUTOMATED STATIONS**
 *****  WEATHER ACROSS EASTERN NORTH DAKOTA  *****

CITY           SKY/WX    TMP DP  RH WIND       PRES   REMARKS
GRAND FORKS    CLEAR     53  52  96 W5        29.66S
GRAND FRKS AFB CLEAR     56  56  99 NW7       29.67S
GRAND FRKS NWS   N/A     52 N/A N/A NW1         N/A
DEVILS LAKE    PTCLDY    55  50  82 W3        29.70S
FARGO          CLEAR     56  54  93 W6        29.66R
WAHPETON ARPT  MOSUNNY   55  54  94 NW5       29.66F
$$

 ***** WEATHER ACROSS CENTRAL AND WESTERN NORTH DAKOTA  *****

CITY           SKY/WX    TMP DP  RH WIND       PRES   REMARKS
BISMARCK       MOCLDY    58  56  93 N5        29.77R
MINOT          CLEAR     54  51  90 SW8       29.74R
JAMESTOWN      MOCLDY    58  55  90 NW6       29.72R
MINOT AFB      CLEAR     52  51  99 W5        29.73R
GARRISON         N/A     53  51  93 CALM      29.75R
WILLISTON      CLOUDY    57  53  86 NE8       29.80R
DICKINSON      CLEAR     52  47  83 W7        29.78S
HETTINGER      CLEAR     49  46  90 NW3       29.84R
$$

 *****  OTHER AIRPORT OBSERVATIONS IN OUR AREA  *****

CITY           SKY/WX    TMP DP  RH WIND       PRES   REMARKS
WALHALLA       FAIR      54  54 100 CALM      29.67F
GRAFTON AIRPOR FAIR      57  57 100 W7        29.67R
VALLEY CITY AR FAIR      55  55 100 NW8       29.71R
CANDO          FAIR      50  50 100 W5        29.72S
CAVALIER APRT  FAIR      54  54 100 W6        29.66F
GWINNER        SUNNY     61  57  88 NW7       29.71S
ROLLA          FAIR      50  50 100 CALM      29.73S
 ***** THE ABOVE OBSERVATIONS ARE NON NWS ARE NOT QUALITY
       CONTROLLED AND MAY MIS-REPORT RAIN FOR SNOW...
$$

  *****  WEATHER ACROSS NORTHERN MINNESOTA  *****

CITY           SKY/WX    TMP DP  RH WIND       PRES   REMARKS
FLAG ISLAND    CLOUDY    61  57  88 NW14      29.57F
WARROAD        CLOUDY    57  54  88 W8        29.61R
ROSEAU         CLOUDY    61  55  82 W8        29.63R
HALLOCK        PTCLDY    57  55  94 W3        29.65S
THF RVR FALLS  CLOUDY    55  55 100 W7        29.65R
BAUDETTE       CLOUDY    59  57  93 CALM      29.59S
WASKISH        CLOUDY    61  59  94 W8        29.62S
CROOKSTON      PTCLDY    54  54 100 NW6       29.67R FOG
$$
  *****  WEATHER ACROSS CENTRAL AND WEST MINNESOTA  *****

CITY           SKY/WX    TMP DP  RH WIND       PRES   REMARKS
FOSSTON        FOG       52  52 100 CALM      29.66S VSB 1
BEMIDJI        CLOUDY    58  58  98 SW5       29.65S
PARK RAPIDS    CLOUDY    60  59  96 W5        29.65S
ELBOW LAKE     FAIR      62  62  99 CALM      29.65F
WADENA         CLOUDY    61  61 100 CALM      29.64F
DETROIT LAKES  MOCLDY    59  55  88 NW3       29.66F
MOORHEAD       CLEAR     57  57 100 NW7       29.66F
FERGUS FALLS   FOG       61  59  94 NW6       29.65F VSB 1
MORRIS MN      CLOUDY    64  63  94 W3        29.65F
STAPLES        CLOUDY    63  61  94 W5        29.63F
$$
  *****  WEATHER ELSEWHERE ACROSS MINNESOTA  *****

CITY           SKY/WX    TMP DP  RH WIND       PRES   REMARKS
DULUTH         LGT RAIN  64  61  90 W7        29.61S
INTRNTL FALLS  CLOUDY    60  58  92 W6        29.58F
ELY            LGT RAIN  63  63 100 CALM      29.58F
CLOQUET        LGT RAIN  63  61  94 CALM      29.60F
WHEATON        CLOUDY    61  57  88 W3        29.68S
BRAINERD       CLOUDY    65  63  93 NW6       29.63F
HIBBING        CLOUDY    64  61  90 W3        29.61S
ALEXANDRIA     CLOUDY    65  63  93 NW9       29.67F
SAINT CLOUD    CLOUDY    67  64  90 W6        29.62F
MINNEAPOLIS    LGT RAIN  66  65  96 S8        29.64F
$$

  *****  WEATHER ACROSS SOUTH DAKOTA  *****

CITY           SKY/WX    TMP DP  RH WIND       PRES   REMARKS
SIOUX FALLS    CLOUDY    63  61  93 NW5       29.70S
BROOKINGS      NOT AVBL
WATERTOWN      CLOUDY    62  61  96 NW5       29.71R
HURON          CLOUDY    61  60  97 S3        29.72R
SISSETON         N/A     62  61  96 NW6       29.66F
ABERDEEN       LGT RAIN  61  60  97 NW6       29.72R
MITCHELL       CLOUDY    65  62  90 NW9       29.71F
PIERRE         MOCLDY    59  56  89 NW10      29.77R
MOBRIDGE       MOCLDY    60  55  83 N8        29.75F
RAPID CITY     CLEAR     51  48  89 W7        29.89R
$$

  *****  SOME WEATHER IN NEARBY STATES *****

CITY           SKY/WX    TMP DP  RH WIND       PRES   REMARKS
GLASGOW MT     PTCLDY    51  47  86 VRB3      29.82R
GREAT FALLS MT MOCLDY    53  37  54 W9        29.92R
CHEYENNE WY    CLEAR     46  42  86 W3        30.07S
SCOTTSBLUFF NE CLEAR     50  48  93 NW7       29.97R
OMAHA NE       CLOUDY    69  64  84 S16G24    29.71R
DES MOINES IA  CLOUDY    68  64  87 W5        29.71R
DAVENPORT IA   CLOUDY    68  63  84 NW23G36   29.83R
CHICAGO IL     PTCLDY    75  68  78 S12       29.84F
EAU CLAIRE WI  LGT RAIN  66  66 100 W8        29.65S FOG
LA CROSSE WI   LGT RAIN  67  63  87 S13G26    29.72F
$$

  *****  SOME NATIONAL WEATHER *****

CITY           SKY/WX    TMP DP  RH WIND       PRES   REMARKS
LA GUARDIA NY  MOCLDY    76  70  82 SW8       29.98F
RALEIGH NC     PTCLDY    77  71  82 SW6       30.08F
ATLANTA GA     MOCLDY    76  70  82 CALM      30.11S
NEW ORLEANS LA MOCLDY    82  76  81 SE9       30.01F
OKLAHOMA CITY  PTCLDY    81  68  64 S18       29.79S
ALBUQUERQUE NM PTCLDY    74  35  24 SE5       30.05R
SALT LAKE CITY CLEAR     61  36  39 S7        29.99R
LOS ANGELES CA PTCLDY    71  66  84 SE10      29.81S
BOISE ID       PTCLDY    60  41  49 CALM      29.99R
SEATTLE WA     PTCLDY    57  53  86 S3        30.07S
$$

*** WEATHER ACROSS MANITOBA...SASKATCHEWAN AND ONTARIO ***
                ***ONTARIO***

CITY           SKY/WX    TMP DP  RH WIND       PRES   REMARKS
GERALDTON      TSTM     N/A N/A N/A S12         N/A
THUNDER BAY    LGT RAIN  61  59  94 E9        29.59F
SIOUX LOOKOUT  CLOUDY    63  61  94 S8        29.50F
TORONTO        PTCLDY    66  63  88 NE2       29.96S
BIG TROUT LK   CLOUDY    57  54  88 E6        29.56F FOG
PICKLE LAKE    NOT AVBL
DRYDEN         CLOUDY    61  61 100 W10       29.52F
KENORA         DRIZZLE   59  57  94 NW8       29.57R
$$
                *** MANITOBA***

CITY           SKY/WX    TMP DP  RH WIND       PRES   REMARKS
BRANDON        PTCLDY    50  50 100 W5        29.69S
DAUPHIN        CLEAR     55  52  88 SW8       29.65R
ISLAND LAKE    MOCLDY    59  59 100 CALM      29.55S
PILOT MOUND      N/A     48  48 100 SW6         N/A
THE PAS        PTCLDY    54  52  94 W5        29.58S
THOMPSON       PTCLDY    45  45 100 CALM      29.54S
WINNIPEG         N/A     55  55 100 W6        29.65R
LYNN LAKE      CLEAR     48  46  93 MISG      29.56S
CHURCHILL      LGT RAIN  50  50 100 E9        29.50F FOG
GILLAM         CLOUDY    54  54 100 CALM      29.52S
$$
                ***SASKATCHEWAN***

CITY           SKY/WX    TMP DP  RH WIND       PRES   REMARKS
ESTEVAN        PTCLDY    52  50  93 W7        29.76R
KINDERSLEY     CLEAR     45  39  81 SW5       29.80R
LLOYDMINSTER   PTCLDY    46  41  81 W7        29.75R
PRINCE ALBERT  PTCLDY    48  46  93 SW2       29.66F
REGINA         MOCLDY    50  50 100 N7        29.76S
YORKTON        CLEAR     52  46  82 W9        29.69S
N. BATTLEFORD  CLEAR     46  41  81 W3        29.76R
LA RONGE       CLOUDY    54  48  82 W7        29.63R
SASKATOON      PTCLDY    46  45  93 W7        29.74R
SWIFT CURRENT  CLEAR     46  43  87 SW12      29.81S
$$
NOTE: THESE ARE AUTOMATED STATIONS WITH LIMITED QUALITY CONTROL
      "FAIR" INDICATES FEW OR NO CLOUDS BELOW 12,000 FEET WITH NO
      SIGNIFICANT WEATHER AND/OR OBSTRUCTIONS TO VISIBILITY.
      SKY/WX - SKY CONDITION AND SIGNIFICANT WEATHER.
      TMP - AIR TEMPERATURE.    DP   - DEWPOINT TEMPERATURE.
      RH  - RELATIVE HUMIDITY.  PRES - PRESSURE.
      HX  - HEAT INDEX.         WCI  - WIND CHILL INDEX.
$



USA.gov is the U.S. government's official web portal to all federal, state and local government web resources and services.